User: anonymous   Login
Location: Star Hoppers Observatory
(42.7905°N, 83.6127°W)
Time: 00:44:45
(UTC-04:00)
Language:

NOSS 3-1 (A) - Orbit

View from above orbital plane
View from above orbital plane
View from above satellite
View from above satellite

Ground track
Ground track

The orbit data is extracted from the following two-line orbital elements,

1 26905U 01040A   14304.46208601 0.00000000  00000-0  00000-0 0    09
2 26905  63.4260 322.2009 0288000 357.6691   2.3309 13.40697725    09
Epoch (UTC): 31 October 2014 11:05:24
Eccentricity: 0.0288000
inclination: 63.4260°
perigee height: 891 km
apogee height: 1322 km
right ascension of ascending node: 322.2009°
argument of perigee: 357.6691°
revolutions per day: 13.40697725
mean anomaly at epoch: 2.3309°
orbit number at epoch: 0

The dashed part of the orbit path shows where the satellite is in the earth's shadow,  

DLR